Regional Weather Roundup
Issued by NWS

Home | Current Version | Previous Version | Text Only | Print | Product List | Glossary On
Versions: 1 2 3 4 5 6 7 8 9 10 11 12 13 14 15 16 17 18 19 20 21 22 23 24 25 26 27 28 29 30 31 32 33 34 35 36 37 38 39 40 41 42 43 44 45 46 47 48 49 50
000
ASUS44 KLIX 130510
RWRLA
LOUISIANA WEATHER ROUNDUP
NATIONAL WEATHER SERVICE NEW ORLEANS LA
1200 AM CDT SUN JUL 13 2014

NOTE: "FAIR" INDICATES FEW OR NO CLOUDS BELOW 12,000 FEET WITH NO
      SIGNIFICANT WEATHER AND/OR OBSTRUCTIONS TO VISIBILITY.
      SKY/WX - SKY CONDITION AND SIGNIFICANT WEATHER.
      TMP - AIR TEMPERATURE.    DP   - DEWPOINT TEMPERATURE.
      RH  - RELATIVE HUMIDITY.  PRES - PRESSURE.
      HX  - HEAT INDEX.         WCI  - WIND CHILL INDEX.

*  THESE STATIONS ARE NOT NWS OR FAA STATIONS AND ARE NOT UNDER
   NWS QUALITY CONTROL.

LAZ040-048-061>063-065-066-069-130600-
SOUTHEAST LOUISIANA

CITY           SKY/WX    TMP DP  RH WIND       PRES   REMARKS
N.O. AUDUBON     N/A     85  75  73 MISG        N/A
N.O. INTL ARPT PTCLDY    81  74  79 SE5       30.09S
N.O. LAKEFRONT CLEAR     83  74  74 CALM      30.09S
N.O. DOWNTOWN* FAIR      84  72  65 CALM      30.09F
SLIDELL        CLEAR     75  72  90 CALM      30.09S
BATON ROUGE    MOCLDY    77  74  90 SE6       30.08F
BOOTHVILLE     CLEAR     82  77  84 CALM      30.08F
BELLE CHASSE     N/A     77  73  87 CALM      30.09S
BOGALUSA*      FAIR      76  72  87 CALM      30.10F
GALLIANO*      NOT AVBL
NEW ROADS*     FAIR      78  76  95 CALM      30.08S
GONZALES*      FAIR      77  76  97 CALM      30.09S
HAMMOND*       CLEAR     77  72  83 CALM      30.10S
HOUMA*         CLOUDY    79  70  73 CALM      30.10S
PORT FOURCHON* CLEAR     86  73  66 CALM      30.11S

$$

LAZ041-044-053-054-130600-
SOUTHWEST LOUISIANA

CITY           SKY/WX    TMP DP  RH WIND       PRES   REMARKS
LAKE CHARLES   CLEAR     74  72  93 SE5       30.08R FOG
LAFAYETTE      CLEAR     78  74  87 CALM      30.10R
PATTERSON      MOCLDY    79  73  83 NE6       30.14R
SALT POINT       N/A     82  76  81 CALM      30.08R
NEW IBERIA     PTCLDY    76  74  93 CALM      30.10R
CHENAULT AIRPK CLEAR     74  72  91 E5        30.09S

$$

LAZ027-028-130600-
CENTRAL LOUISIANA

CITY           SKY/WX    TMP DP  RH WIND       PRES   REMARKS
FORT POLK      CLEAR     75  73  93 CALM      30.09S
ALEXANDRIA INT CLEAR     75  72  90 CALM      30.07S
ALEXANDRIA     CLEAR     75  72  90 CALM      30.08F

$$

LAZ001-002-130600-
NORTHWEST LOUISIANA

CITY           SKY/WX    TMP DP  RH WIND       PRES   REMARKS
SHREVEPORT     CLEAR     79  72  79 SE5       30.07S
BARKSDALE AFB  NOT AVBL
DTN SHREVEPORT CLEAR     80  72  76 SE3       30.07S

$$

LAZ014-016-130600-
NORTHEAST LOUISIANA

CITY           SKY/WX    TMP DP  RH WIND       PRES   REMARKS
MONROE         CLEAR     77  74  90 CALM      30.09F
TALLULAH       CLEAR     76  74  93 CALM      30.08F

$$



USA.gov is the U.S. government's official web portal to all federal, state and local government web resources and services.